Change the Weather History Date:

Sunday, March 9, 2014

  Actual Average Record
Temperature  
Mean Temperature 48 °F -  
Max Temperature 55 °F 44 °F 61 °F (2012)
Min Temperature 41 °F 28 °F 16 °F (2009)
Degree Days  
Heating Degree Days 17    
Moisture  
Dew Point 45 °F    
Average Humidity 89    
Maximum Humidity 100    
Minimum Humidity 60    
Precipitation  
Precipitation 0.11 in - - ()
Sea Level Pressure  
Sea Level Pressure 29.86 in    
Wind  
Wind Speed 16 mph (SSW)    
Max Wind Speed 24 mph    
Max Gust Speed 31 mph    
Visibility 10 miles    
Events Rain    
Averages and records for this station are not official NWS values.
T = Trace of Precipitation, MM = Missing Value Source: NWS Daily Summary

Daily Weather History Graph

Daily Weather History Graph

Search for Another Location

Airport or City:

Trip Planner

Search our weather history database for the weather conditions in past years. The results will help you decide how hot, cold, wet, or windy it might be!

Date:

Astronomy

Mar. 09, 2014 Rise Set
Actual Time 7:15 AM PDT 6:47 PM PDT
Civil Twilight 6:44 AM PDT 7:18 PM PDT
Nautical Twilight 6:09 AM PDT 7:54 PM PDT
Astronomical Twilight 5:32 AM PDT 8:30 PM PDT
Moon 12:26 PM PDT (3/9) 3:02 AM PDT (3/9)
Length of Visible Light 12h 33m
Length of Day
11h 32m
First Quarter, 62% of the Moon is Illuminated
Mar 9
First Quarter
Mar 16
Full
Mar 23
Last Quarter
Mar 30
New
Apr 7
First Quarter

Hourly Weather History & Observations

Time (PDT) Temp. Windchill Dew Point Humidity Pressure Visibility Wind Dir Wind Speed Gust Speed Precip Events Conditions
12:02 AM 46.4 °F 39.5 °F 44.6 °F 93% 29.81 in 10.0 mi South 17.3 mph 25.3 mph N/A Rain Light Rain
12:12 AM 46.4 °F 39.2 °F 44.6 °F 93% 29.81 in 10.0 mi South 18.4 mph 21.9 mph N/A Rain Light Rain
12:22 AM 46.4 °F 39.8 °F 44.6 °F 93% 29.81 in 10.0 mi South 16.1 mph - N/A Rain Light Rain
12:27 AM 46.4 °F 39.5 °F 44.6 °F 93% 29.81 in 10.0 mi South 17.3 mph - N/A Rain Light Rain
12:28 AM 46.4 °F 39.5 °F 44.6 °F 93% 29.81 in 10.0 mi South 17.3 mph 23.0 mph N/A Rain Light Rain
12:33 AM 46.4 °F 40.1 °F 44.6 °F 93% 29.81 in 10.0 mi South 15.0 mph 23.0 mph N/A Rain Light Rain
12:37 AM 46.4 °F 41.1 °F 44.6 °F 93% 29.81 in 10.0 mi South 11.5 mph 23.0 mph N/A Rain Light Rain
12:42 AM 46.4 °F 40.1 °F 44.6 °F 93% 29.81 in 10.0 mi South 15.0 mph 21.9 mph N/A Rain Light Rain
12:45 AM 46.4 °F 40.7 °F 44.6 °F 93% 29.81 in 10.0 mi South 12.7 mph 20.7 mph N/A Rain Light Rain
12:50 AM 46.4 °F 40.4 °F 44.6 °F 93% 29.81 in 10.0 mi South 13.8 mph 20.7 mph N/A Rain Light Rain
12:58 AM 46.2 °F 40.5 °F 45.0 °F 95% 29.83 in 10.0 mi South 12.7 mph - 0.01 in Rain Light Rain
1:08 AM 46.4 °F 40.4 °F 44.6 °F 93% 29.81 in 10.0 mi South 13.8 mph - N/A Rain Light Rain
1:09 AM 46.4 °F 40.7 °F 44.6 °F 93% 29.81 in 10.0 mi South 12.7 mph - N/A Rain Light Rain
1:58 AM 46.8 °F - 45.5 °F 95% 29.83 in 10.0 mi South 16.1 mph 21.9 mph 0.05 in Rain Light Rain
3:54 AM 48.2 °F - 46.4 °F 93% 29.80 in 10.0 mi South 18.4 mph - N/A   Overcast
3:58 AM 48.2 °F - 46.4 °F 93% 29.81 in 10.0 mi South 17.3 mph - 0.04 in   Overcast
4:26 AM 48.2 °F - 46.4 °F 93% 29.80 in 10.0 mi SSW 18.4 mph 28.8 mph N/A Rain Light Rain
4:36 AM 50.0 °F - 46.4 °F 87% 29.81 in 10.0 mi SSW 19.6 mph 29.9 mph N/A Rain Light Rain
4:41 AM 50.0 °F - 46.4 °F 87% 29.81 in 10.0 mi SSW 20.7 mph 29.9 mph N/A Rain Light Rain
4:44 AM 50.0 °F - 46.4 °F 87% 29.81 in 10.0 mi SSW 20.7 mph 29.9 mph N/A   Mostly Cloudy
4:45 AM 50.0 °F - 46.4 °F 87% 29.81 in 10.0 mi SSW 20.7 mph 29.9 mph N/A Rain Light Rain
4:50 AM 50.0 °F - 46.4 °F 87% 29.81 in 10.0 mi SSW 24.2 mph 28.8 mph N/A Rain Light Rain
4:58 AM 50.0 °F - 48.2 °F 94% 29.82 in 10.0 mi SSW 19.6 mph 31.1 mph 0.00 in Rain Light Rain
5:19 AM 50.0 °F - 48.2 °F 94% 29.81 in 10.0 mi SSW 18.4 mph 26.5 mph N/A   Scattered Clouds
5:58 AM 48.9 °F - 47.3 °F 94% 29.84 in 10.0 mi SSW 17.3 mph - 0.00 in   Scattered Clouds
6:00 AM 48.2 °F - 46.4 °F 93% 29.82 in 10.0 mi SSW 15.0 mph - N/A   Scattered Clouds
6:10 AM 48.2 °F - 46.4 °F 93% 29.82 in 10.0 mi SSW 16.1 mph 20.7 mph N/A   Mostly Cloudy
6:25 AM 48.2 °F - 46.4 °F 93% 29.82 in 10.0 mi SSW 13.8 mph - N/A   Scattered Clouds
6:58 AM 47.7 °F - 46.4 °F 95% 29.86 in 10.0 mi SSW 10.4 mph - N/A   Partly Cloudy
7:58 AM 47.3 °F - 45.9 °F 95% 29.88 in 10.0 mi SSW 13.8 mph - N/A   Scattered Clouds
8:08 AM 46.4 °F 39.8 °F 46.4 °F 100% 29.86 in 10.0 mi SSW 16.1 mph - N/A   Mostly Cloudy
8:33 AM 48.2 °F - 46.4 °F 93% 29.86 in 10.0 mi SSW 15.0 mph - N/A   Overcast
8:58 AM 47.5 °F - 45.9 °F 94% 29.90 in 10.0 mi SSW 15.0 mph - N/A   Overcast
9:08 AM 48.2 °F - 46.4 °F 93% 29.87 in 10.0 mi SSW 13.8 mph - N/A   Overcast
9:18 AM 48.2 °F - 46.4 °F 93% 29.87 in 10.0 mi SSW 12.7 mph - N/A   Overcast
9:33 AM 48.2 °F - 46.4 °F 93% 29.88 in 10.0 mi SSW 15.0 mph - N/A   Overcast
9:44 AM 48.2 °F - 46.4 °F 93% 29.88 in 10.0 mi SSW 15.0 mph - N/A Rain Light Rain
9:58 AM 47.8 °F - 46.6 °F 95% 29.92 in 10.0 mi SSW 17.3 mph - 0.00 in Rain Light Rain
10:03 AM 48.2 °F - 46.4 °F 93% 29.89 in 10.0 mi SW 16.1 mph - N/A Rain Light Rain
10:18 AM 48.2 °F - 46.4 °F 93% 29.89 in 10.0 mi SW 17.3 mph - N/A Rain Light Rain
10:33 AM 48.2 °F - 46.4 °F 93% 29.90 in 10.0 mi SW 20.7 mph 27.6 mph N/A Rain Light Rain
10:58 AM 48.6 °F - 47.7 °F 97% 29.93 in 9.0 mi SW 15.0 mph - 0.01 in Rain Light Rain
11:28 AM 48.2 °F - 48.2 °F 100% 29.91 in 7.0 mi SW 15.0 mph - N/A Rain Light Rain
11:43 AM 48.2 °F - 48.2 °F 100% 29.90 in 9.0 mi SW 15.0 mph - N/A Rain Light Rain
11:51 AM 50.0 °F - 50.0 °F 100% 29.89 in 10.0 mi SSW 13.8 mph - N/A   Overcast
11:56 AM 50.0 °F - 50.0 °F 100% 29.89 in 10.0 mi SSW 13.8 mph - N/A   Overcast
11:58 AM 50.0 °F - 48.2 °F 94% 29.91 in 10.0 mi SSW 15.0 mph - 0.00 in   Overcast
12:28 PM 51.8 °F - 48.2 °F 88% 29.89 in 10.0 mi SSW 18.4 mph 23.0 mph N/A   Overcast
12:33 PM 51.8 °F - 48.2 °F 88% 29.89 in 10.0 mi SSW 20.7 mph 25.3 mph N/A   Overcast
12:43 PM 51.8 °F - 48.2 °F 88% 29.89 in 10.0 mi SW 18.4 mph 26.5 mph N/A   Overcast
12:58 PM 52.5 °F - 49.1 °F 88% 29.91 in 10.0 mi SW 17.3 mph - N/A   Overcast
1:03 PM 51.8 °F - 50.0 °F 94% 29.89 in 10.0 mi SSW 16.1 mph 24.2 mph N/A   Overcast
1:13 PM 51.8 °F - 48.2 °F 88% 29.89 in 10.0 mi SW 18.4 mph 24.2 mph N/A   Overcast
1:20 PM 51.8 °F - 48.2 °F 88% 29.90 in 10.0 mi SW 15.0 mph - N/A Rain Light Rain
1:30 PM 51.8 °F - 48.2 °F 88% 29.90 in 10.0 mi SW 18.4 mph - N/A   Overcast
1:40 PM 53.6 °F - 48.2 °F 82% 29.90 in 10.0 mi SW 16.1 mph 25.3 mph N/A   Overcast
1:50 PM 53.6 °F - 48.2 °F 82% 29.89 in 10.0 mi WSW 18.4 mph - N/A   Overcast
1:58 PM 55.0 °F - 47.7 °F 76% 29.91 in 10.0 mi WSW 23.0 mph 25.3 mph 0.00 in   Overcast
2:22 PM 53.6 °F - 46.4 °F 77% 29.89 in 10.0 mi WSW 19.6 mph - N/A   Overcast
2:58 PM 55.2 °F - 45.1 °F 69% 29.89 in 10.0 mi WSW 20.7 mph - N/A   Overcast
3:58 PM 55.9 °F - 43.5 °F 63% 29.89 in 10.0 mi SW 18.4 mph 26.5 mph N/A   Clear
4:58 PM 54.7 °F - 41.2 °F 60% 29.89 in 10.0 mi WSW 23.0 mph - N/A   Partly Cloudy
5:58 PM 52.3 °F - 40.6 °F 64% 29.91 in 10.0 mi WSW 12.7 mph - N/A   Clear
6:58 PM 50.0 °F - 39.7 °F 68% 29.91 in 10.0 mi WSW 15.0 mph - N/A   Clear
7:58 PM 46.2 °F 40.1 °F 39.4 °F 77% 29.92 in 10.0 mi WSW 13.8 mph - N/A   Clear
8:58 PM 43.0 °F 38.8 °F 38.7 °F 85% 29.91 in 10.0 mi WSW 6.9 mph - N/A   Clear
9:43 PM 42.8 °F 40.1 °F 39.2 °F 87% 29.87 in 10.0 mi South 4.6 mph - N/A   Clear
9:56 PM 41.0 °F - 39.2 °F 93% 29.88 in 10.0 mi North 1.2 mph - N/A   Clear
9:58 PM 41.0 °F - 39.2 °F 93% 29.91 in 10.0 mi Calm Calm - 0.00 in   Clear
10:33 PM 41.0 °F 37.1 °F 39.2 °F 93% 29.88 in 10.0 mi SSE 5.8 mph - N/A   Clear
10:50 PM 42.8 °F 38.6 °F 39.2 °F 87% 29.88 in 10.0 mi South 6.9 mph - N/A   Clear
10:58 PM 42.4 °F 38.1 °F 38.5 °F 86% 29.90 in 10.0 mi SSE 6.9 mph - 0.00 in   Clear
11:14 PM 42.8 °F 38.6 °F 39.2 °F 87% 29.87 in 10.0 mi SSE 6.9 mph - N/A   Clear
11:23 PM 42.8 °F 39.3 °F 39.2 °F 87% 29.87 in 10.0 mi SSE 5.8 mph - N/A   Clear
11:58 PM 42.3 °F - 38.7 °F 87% 29.90 in 10.0 mi South 2.3 mph - 0.00 in   Clear
12:58 AM 42.4 °F 37.5 °F 38.7 °F 86% 29.88 in 10.0 mi South 8.1 mph - N/A   Mostly Cloudy